GW4670 Weather Reports


Display with metric or nautical units.
time (UTC)temp
F
wind
direction
speed
MPH
gust
MPH
rain 1hr
in
rain 24hr
in
rain mn
in
humidity
%
barometer
mb
20260505035525 54 344 14.0 17.0 0.00 0.00 0.00 45 1002.1
20260505035022 54 322 12.0 16.0 0.00 0.00 0.00 44 1002.5
20260505034518 54 350 11.0 11.0 0.00 0.00 0.00 44 1002.9
20260505034015 54 344 9.0 10.0 0.00 0.00 0.00 45 1003.1
20260505033512 55 317 15.0 17.0 0.00 0.00 0.00 44 1003.0
20260505033011 55 308 14.0 16.0 0.00 0.00 0.00 44 1002.7
20260505032508 56 339 10.0 13.0 0.00 0.00 0.00 45 1002.1
20260505032004 56 329 10.0 13.0 0.00 0.00 0.00 45 1002.2
20260505031501 57 304 10.0 11.0 0.00 0.00 0.00 43 1002.0
20260505030958 57 295 11.0 15.0 0.00 0.00 0.00 42 1001.8
20260505030454 57 350 6.0 7.0 0.00 0.00 0.00 41 1002.0
20260505025949 57 339 7.0 8.0 0.00 0.00 0.00 42 1001.8
20260505025447 57 312 6.0 8.0 0.00 0.00 0.00 42 1001.9
20260505024945 58 317 5.0 7.0 0.00 0.00 0.00 41 1001.8
20260505024442 57 343 8.0 11.0 0.00 0.00 0.00 41 1001.8
20260505023940 57 319 11.0 14.0 0.00 0.00 0.00 39 1001.7
20260505023436 57 331 9.0 13.0 0.00 0.00 0.00 40 1001.8
20260505022934 57 306 10.0 11.0 0.00 0.00 0.00 40 1001.7
20260505022431 57 333 8.0 8.0 0.00 0.00 0.00 41 1001.2
20260505021928 57 310 10.0 11.0 0.00 0.00 0.00 40 1001.2
20260505021425 56 314 6.0 7.0 0.00 0.00 0.00 42 1001.0
20260505020920 57 329 5.0 6.0 0.00 0.00 0.00 41 1000.9
20260505020416 57 348 11.0 13.0 0.00 0.00 0.00 41 1000.7
20260505015913 57 330 9.0 11.0 0.00 0.00 0.00 40 1000.6
20260505015410 57 342 9.0 10.0 0.00 0.00 0.00 39 1000.8
20260505014907 57 340 7.0 9.0 0.00 0.00 0.00 39 1000.8
20260505014404 58 327 10.0 11.0 0.00 0.00 0.00 37 1000.7
20260505013901 58 336 10.0 13.0 0.00 0.00 0.00 37 1000.6
20260505013358 59 332 12.0 14.0 0.00 0.00 0.00 37 1000.6
20260505012856 59 357 11.0 13.0 0.00 0.00 0.00 36 1000.0
20260505012354 60 351 12.0 13.0 0.00 0.00 0.00 37 1000.1
20260505011850 60 321 12.0 14.0 0.00 0.00 0.00 37 999.9
20260505011347 60 338 8.0 9.0 0.00 0.00 0.00 39 999.7
20260505010843 61 351 9.0 10.0 0.00 0.00 0.00 36 999.6
20260505010338 61 347 12.0 15.0 0.00 0.00 0.00 36 999.3
20260505005835 61 320 10.0 11.0 0.00 0.00 0.00 36 999.1
20260505005332 62 337 9.0 11.0 0.00 0.00 0.00 37 999.2
20260505004830 63 342 9.0 10.0 0.00 0.00 0.00 35 999.1
20260505004326 63 332 10.0 13.0 0.00 0.00 0.00 35 999.1
20260505003823 64 329 11.0 11.0 0.00 0.00 0.00 34 998.9
20260505003320 64 5 8.0 10.0 0.00 0.00 0.00 34 999.0
20260505002816 64 337 9.0 10.0 0.00 0.00 0.00 34 999.1
20260505002314 64 341 11.0 14.0 0.00 0.00 0.00 33 998.8
20260505001812 65 329 15.0 18.0 0.00 0.00 0.00 32 998.9
20260505001308 66 357 14.0 16.0 0.00 0.00 0.00 33 999.0
20260505000806 67 340 17.0 20.0 0.00 0.00 0.00 34 998.6
20260505000303 67 328 8.0 10.0 0.00 0.00 0.00 37 998.5
20260504235800 67 349 11.0 14.0 0.00 0.00 0.00 36 998.7
20260504235256 68 340 9.0 13.0 0.00 0.00 0.00 36 998.6
20260504234753 68 320 16.0 22.0 0.00 0.00 0.00 34 998.5
20260504234251 69 340 11.0 15.0 0.00 0.00 0.00 34 998.6
20260504233747 69 315 9.0 11.0 0.00 0.00 0.00 34 998.1
20260504233243 69 312 13.0 15.0 0.00 0.00 0.00 33 997.9
20260504232740 70 338 15.0 16.0 0.00 0.00 0.00 31 997.8
20260504232237 70 354 11.0 14.0 0.00 0.00 0.00 33 998.0
20260504231734 71 336 11.0 15.0 0.00 0.00 0.00 33 997.9
20260504231230 71 353 15.0 17.0 0.00 0.00 0.00 31 997.8
20260504230726 71 342 13.0 16.0 0.00 0.00 0.00 32 997.9
20260504230225 71 354 12.0 15.0 0.00 0.00 0.00 33 997.7
20260504225724 72 347 14.0 15.0 0.00 0.00 0.00 31 997.4
20260504225219 72 315 14.0 16.0 0.00 0.00 0.00 31 997.6
20260504224716 72 325 11.0 13.0 0.00 0.00 0.00 32 997.5
20260504224214 73 338 8.0 11.0 0.00 0.00 0.00 33 997.4
20260504223710 73 6 13.0 15.0 0.00 0.00 0.00 31 997.3
20260504223205 73 314 14.0 18.0 0.00 0.00 0.00 30 997.1
20260504222703 73 319 11.0 16.0 0.00 0.00 0.00 32 997.2
20260504222159 73 355 15.0 17.0 0.00 0.00 0.00 30 997.0
20260504221657 74 355 10.0 13.0 0.00 0.00 0.00 33 996.9
20260504221154 74 6 13.0 15.0 0.00 0.00 0.00 31 996.8
20260504220650 75 343 11.0 14.0 0.00 0.00 0.00 32 996.7
20260504220148 75 7 12.0 17.0 0.00 0.00 0.00 31 996.8
20260504215644 75 317 9.0 11.0 0.00 0.00 0.00 32 996.5
20260504215142 76 334 11.0 13.0 0.00 0.00 0.00 32 996.6
20260504214637 76 4 9.0 10.0 0.00 0.00 0.00 32 996.6
20260504214134 76 347 12.0 14.0 0.00 0.00 0.00 32 996.4
20260504213630 76 5 15.0 21.0 0.00 0.00 0.00 32 996.2
20260504213127 77 327 13.0 16.0 0.00 0.00 0.00 33 996.3
20260504212624 77 319 12.0 16.0 0.00 0.00 0.00 33 996.3
20260504212121 77 321 11.0 13.0 0.00 0.00 0.00 34 996.2
20260504211618 78 346 13.0 14.0 0.00 0.00 0.00 34 996.1
20260504211114 78 325 10.0 13.0 0.00 0.00 0.00 34 996.1
20260504210612 76 325 8.0 10.0 0.00 0.00 0.00 37 996.0
20260504210108 76 318 10.0 13.0 0.00 0.00 0.00 38 996.2
20260504205606 76 317 8.0 9.0 0.00 0.00 0.00 37 996.1
20260504205104 77 324 9.0 10.0 0.00 0.00 0.00 36 996.0
20260504204601 78 323 11.0 14.0 0.00 0.00 0.00 35 995.8
20260504204100 78 291 10.0 15.0 0.00 0.00 0.00 34 995.8
20260504203558 78 329 5.0 6.0 0.00 0.00 0.00 34 995.9
20260504203055 80 301 11.0 14.0 0.00 0.00 0.00 31 995.8
20260504202550 82 266 11.0 13.0 0.00 0.00 0.00 27 995.7
20260504202048 81 277 15.0 20.0 0.00 0.00 0.00 26 995.8
20260504201544 80 332 8.0 9.0 0.00 0.00 0.00 28 995.5
20260504201043 81 299 15.0 20.0 0.00 0.00 0.00 27 995.7
20260504200538 80 304 10.0 14.0 0.00 0.00 0.00 27 995.9
20260504200036 82 262 9.0 15.0 0.00 0.00 0.00 29 996.0
20260504195531 81 286 12.0 16.0 0.00 0.00 0.00 29 995.9
20260504195029 81 310 9.0 14.0 0.00 0.00 0.00 30 996.1
20260504194525 80 298 14.0 15.0 0.00 0.00 0.00 30 996.1
20260504194020 81 291 18.0 22.0 0.00 0.00 0.00 28 996.1
20260504193517 81 297 13.0 18.0 0.00 0.00 0.00 29 996.0
20260504193017 81 304 12.0 14.0 0.00 0.00 0.00 31 996.2
20260504192514 80 296 13.0 15.0 0.00 0.00 0.00 30 996.3
20260504192012 80 295 19.0 23.0 0.00 0.00 0.00 30 996.1
20260504191509 80 304 11.0 14.0 0.00 0.00 0.00 30 996.2
20260504191005 80 300 12.0 15.0 0.00 0.00 0.00 30 996.1
20260504190501 79 294 15.0 20.0 0.00 0.00 0.00 31 996.3
20260504185957 80 312 13.0 18.0 0.00 0.00 0.00 30 996.2
20260504185455 80 301 14.0 15.0 0.00 0.00 0.00 30 996.2
20260504184951 80 293 14.0 17.0 0.00 0.00 0.00 32 996.4
20260504184447 80 270 7.0 11.0 0.00 0.00 0.00 34 996.3
20260504183942 80 291 7.0 8.0 0.00 0.00 0.00 35 996.5
20260504183440 78 289 12.0 17.0 0.00 0.00 0.00 32 996.6
20260504182938 79 249 9.0 11.0 0.00 0.00 0.00 34 996.5
20260504182434 78 302 10.0 14.0 0.00 0.00 0.00 33 996.6
20260504181932 79 291 17.0 18.0 0.00 0.00 0.00 31 996.4
20260504181429 79 301 11.0 14.0 0.00 0.00 0.00 33 996.7
20260504180928 79 293 19.0 22.0 0.00 0.00 0.00 31 996.4
20260504180426 79 306 16.0 20.0 0.00 0.00 0.00 32 996.6
20260504175924 79 305 13.0 17.0 0.00 0.00 0.00 33 996.5
20260504175421 79 296 15.0 21.0 0.00 0.00 0.00 34 996.5
20260504174918 79 290 15.0 16.0 0.00 0.00 0.00 32 996.6
20260504174416 79 295 8.0 11.0 0.00 0.00 0.00 34 996.6
20260504173913 78 278 9.0 13.0 0.00 0.00 0.00 34 996.7
20260504173409 79 263 10.0 11.0 0.00 0.00 0.00 33 996.7
20260504172907 78 288 9.0 11.0 0.00 0.00 0.00 36 996.8
20260504172403 79 273 13.0 16.0 0.00 0.00 0.00 33 996.7
20260504171859 79 317 13.0 15.0 0.00 0.00 0.00 33 996.6
20260504171356 78 283 12.0 16.0 0.00 0.00 0.00 33 996.7
20260504170853 78 299 10.0 13.0 0.00 0.00 0.00 35 996.8
20260504170350 78 297 9.0 11.0 0.00 0.00 0.00 38 996.7
20260504160308 76 262 7.0 9.0 0.00 0.00 0.00 40 997.4
20260504150733 73 187 9.0 15.0 0.00 0.00 0.00 45 997.7
20260504150230 72 148 0.0 1.0 0.00 0.00 0.00 48 997.8
20260504141159 68 157 1.0 1.0 0.00 0.00 0.00 48 998.4
20260504140656 67 155 3.0 7.0 0.00 0.00 0.00 47 998.3
20260504140152 66 281 5.0 7.0 0.00 0.00 0.00 47 998.3
20260504130620 61 165 3.0 3.0 0.00 0.00 0.00 56 998.9
20260504130117 60 164 1.0 2.0 0.00 0.00 0.00 56 998.9
20260504110508 43 204 0.0 0.0 0.00 0.00 0.00 81 999.5
20260504100430 45 192 0.0 1.0 0.00 0.00 0.00 75 1000.3
20260504081823 44 180 2.0 2.0 0.00 0.00 0.00 80 1001.0
20260504081320 44 180 0.0 0.0 0.00 0.00 0.00 81 1001.2
20260504080816 45 175 0.0 0.0 0.00 0.00 0.00 79 1001.1
20260504080313 45 160 2.0 2.0 0.00 0.00 0.00 75 1001.1
20260504070240 39 265 0.0 0.0 0.00 0.00 0.00 91 1001.8
20260504060201 41 201 0.0 0.0 0.00 0.00 0.00 85 1002.5
20260504050629 41 307 0.0 0.0 0.00 0.00 0.00 92 1003.2
20260504050126 41 309 0.0 0.0 0.00 0.00 0.00 92 1003.1
20260504045623 41 310 0.0 0.0 0.00 0.00 0.00 91 1003.0
20260504045118 42 310 0.0 0.0 0.00 0.00 0.00 91 1003.1
20260504044616 42 308 0.0 0.0 0.00 0.00 0.00 91 1003.2
20260504044113 41 325 1.0 1.0 0.00 0.00 0.00 90 1003.4
20260504043610 41 306 0.0 0.0 0.00 0.00 0.00 89 1003.3
20260504043107 42 305 0.0 0.0 0.00 0.00 0.00 89 1003.4
20260504042604 42 305 0.0 0.0 0.00 0.00 0.00 89 1003.3
20260504042101 42 305 0.0 1.0 0.00 0.00 0.00 88 1003.5
20260504041556 42 305 0.0 0.0 0.00 0.00 0.00 88 1003.5
20260504041053 42 305 0.0 0.0 0.00 0.00 0.00 88 1003.5
20260504040550 43 305 0.0 0.0 0.00 0.00 0.00 88 1003.6
20260504040041 42 305 0.0 0.0 0.00 0.00 0.00 86 1003.7